2020-003A (45016 NORAD) Tracking and Keplerian Element Data

This shows tracking and keplerian element data for the satellite.

Feedback or suggestion? Click here.




ElementValue
Catalog45016
Name2020-003A
Epoch Orbit580
Epoch Day53.17027656
Epoch Year2020
RAAN121.4142
Inclination97.3311
Eccentricity0.0013878
Argument of Perigee130.6212
Mean Anonmoly229.6236
Mean Motion15.27043982
Decay Rate7.74E-06
L11 45016U 20003A 20053.17027656 .00000774 00000-0 31824-4 0 9995
L22 45016 97.3311 121.4142 0013878 130.6212 229.6236 15.27043982 5803

Live tracking and technical data element details for 2020-003A (NORAD 45016). 2020-003A can be tracked NOW for your location showing map with azimuth and elevation plus other details from your city location.

Track the satellite on the map from your city or location and see movement details for azimuth, elevation, latitude, longitude, range, height, and movement on the map or in text.







IsCatalogInMostPopularTable: catalog: 45016, numindb: 11
Update: records affected: 1



GetName: 45016 2020-003A

Hit Count: updated at: Mon, 24 Feb 2020 17:44:11 GMT